[Date Prev][Date Next][Thread Prev][Thread Next][Date Index][Thread Index]

[jamsat-news:1362] jas2info #204



========================   ºÇ¿·¾ðÊó   ==============================

        Last updated ¡§Tue14Nov2000 ¡¡12:45 (JST) #204

====================================================================
   
  £±¡Ë¥¢¥Þ¥Á¥å¥¢ÄÌ¿®±ÒÀ±¾ðÊ󡡣ƣϥ·¥ê¡¼¥º¤Îµ°Æ»Í×ÁÇ¡¢¥Æ¥ì¥á¥È¥ê¡¢
¡¡¡¡¡¡£Ñ£Ó£Ï¤Î¾õ¶·Åù¤ò¤Þ¤È¤á¤Æ¤ß¤Þ¤·¤¿¡¥
¡¡¡¡¡¡
¡¡¡¡¡¡£Æ£Ï¡Ý£²£¹¤Î£±£±·î£±£´Æü¡Ê²Ð¡Ë¤Î£±£±¡§£µ£°¡Ê£Ê£Ó£Ô¡Ë¤Î¥Ñ¥¹¤Ç¤Ï
¡¡¡¡JARL¤Î¥Û¡¼¥à¤Ú¡¼¥¸¤Î¤È¤¦¤ê¥¢¥Ê¥í¥°±¿ÍѤǤ·¤¿¡£
¡¡¡¡º£¤Þ¤Ç´Ñ¬¤·¤¿¥Æ¥ì¥á¥È¥ê¡¼¤ÈʬÀÏ·ë²Ì¤ò·ÇºÜ¤·¤Æ¤ª¤­¤Þ¤¹.¡¡¡¡¡¡

¡¡¡¡AS20956C1   14NOV2000
¡¡¡¡12:00-12:06(JST)

                                             ¡¡¡¡60 92 90 B0 8B B1 AF AC AB AF 
¡¡¡¡HI HI AE C7 88 55 00 9E A2 5E 09 4A 86 68 82 5F 92 90 B0 88 B1 AF AB AB AF 
¡¡¡¡HI HI AE C7 88 55 00 9E A2 5E 09 4A 87 6F 7D 5F 91 8F B0 87 B1 AF AB AB AF 
¡¡¡¡HI HI AE C7 88 55 00 9E A2 5E 09 4A 87 77 7A 5F 91 8F B0 67 B1 AF AB AB AF 
¡¡¡¡HI HI AE C7 88 55 00 9E A2 5E 09 4A 86 7F 73 5F 91 8F B0 5D B1 AE AB AB AF 
¡¡¡¡HI HI AE C7 88 55 00 9E A2 5E 09 4A 85 86 6F 60 91 8F B0 D1 B1 AE AB AB AF 
¡¡¡¡HI HI AE C7 88 55 00 9E A2 5E 09 4A 84 8E 6C 5F 91 8F B0 4F B1 AE AA AB AF 
¡¡¡¡HI HI AE C7 88 55 00 9E A2 5E 09 4A 82 8E
¡¡¡¡
¡¡------------------------¡¡£Æ£Ï-£²£¹¤Îµ°Æ»Í×ÁÇ¡¡------------------------------        
 
¡¡¡¡¢£ µ°Æ»Í×ÁÇ£±¡§¡Öjamsat¡Ýkeps¡§£±£°£´£¶¡×¤è¤ê         
¡¡¡¡¡¡¡¡¡¡¡¡¡¡¡¡¡¡¡¡SB KEPS @ AMSAT  $ORB00314.N
¡¡¡¡¡¡¡¡¡¡¡¡¡¡¡¡¡¡¡¡2Line Orbital Elements 00314.AMSAT

¡¡HR AMSAT ORBITAL ELEMENTS FOR AMATEUR SATELLITES IN NASA FORMAT
¡¡FROM WA5QGD FORT WORTH,TX November 9, 2000
¡¡SEND SUBSCRIBE/UNSUBSCRIBE TO majordomo@amsat.org ONLY
¡¡BID: ORB00314.N

¡¡DECODE 2-LINE ELSETS WITH THE FOLLOWING KEY:
¡¡1 AAAAAU 00  0  0 BBBBB.BBBBBBBB  .CCCCCCCC  00000-0  00000-0 0  DDDZ
¡¡2 AAAAA EEE.EEEE FFF.FFFF GGGGGGG HHH.HHHH III.IIII JJ.JJJJJJJJKKKKKZ
¡¡KEY: A-CATALOGNUM B-EPOCHTIME C-DECAY D-ELSETNUM E-INCLINATION F-RAAN
¡¡G-ECCENTRICITY H-ARGPERIGEE I-MNANOM J-MNMOTION K-ORBITNUM Z-CHECKSUM

¡¡¡¡FO-29
¡¡1 24278U 96046B   00313.64399253  .00000092  00000-0  13160-3 0 03793
¡¡2 24278 098.5736 202.4263 0350874 212.9493 144.9338 13.52747287208827

 ¢£ µ°Æ»Í×ÁÇ£²¡§¡Öjamsat¡Ýkeps¡§£±£°£´£·¡×¤è¤ê                    
¡¡¡¡¡¡¡¡¡¡¡¡¡¡¡¡¡¡SB KEPS @ AMSAT  $ORB00314.O
¡¡¡¡¡¡¡¡¡¡¡¡¡¡¡¡¡¡Orbital Elements  00314.OSCAR

¡¡HR AMSAT ORBITAL ELEMENTS FOR OSCAR SATELLITES
¡¡FROM WA5QGD FORT WORTH,TX November 9, 2000
¡¡SEND SUBSCRIBE/UNSUBSCRIBE TO majordomo@amsat.org ONLY
¡¡BID: ORB00314.O
¡¡TO ALL RADIO AMATEURS BT

  Satellite: FO-29
¡¡Catalog number: 24278
¡¡Epoch time:      00313.64399253
¡¡Element set:    0379
¡¡Inclination:      098.5736 deg
¡¡RA of node:       202.4263 deg
¡¡Eccentricity:    0.0350874
¡¡Arg of perigee:   212.9493 deg
¡¡Mean anomaly:     144.9338 deg
¡¡Mean motion:   13.52747287 rev/day
¡¡Decay rate:        9.2e-07 rev/day^2
¡¡Epoch rev:           20882
¡¡Checksum:              335

-------------------¡¡¡¡FO-29¡ÊJAS-2)¤Î¥Æ¥ì¥á¥È¥ê¤Ë´Ø¤¹¤ë¾ðÊó¡¡¡¡----------------------¡¡
¡¡
£²¡Ë¾åµ­¥Æ¥ì¥á¥È¥ê¡¼¤ÎºÇ¸å¤«¤é£²¹ÔÌܤòʬÀϤ·¤Æ¤ª¤­¤Þ¤¹.
¡¡
¡¡¡¡AS20956C1   14NOV2000
¡¡¡¡12:00-12:06(JST)
                                             
¡¡HI HI AE C7 88 55 00 9E A2 5E 09 4A 84 8E 6C 5F 91 8F B0 4F B1 AE AA AB AF 
 
¥Æ¥ì¥á¥È¥ê¡¡¡¡Æâ¡¡ÍÆ¡¡¡¡¡¡¡¡¡¡¡¡´¹»»»»ÃÍ¡¡Ã± °Ì  

¡¡£³£Ã	¼§µ¤¥»¥ó¥µ¡¼£Ú¼´	=	64705.9	[nT]	
¡¡£³£Ä	¼§µ¤¥»¥ó¥µ£Ø¼´	=	69607.8	[nT]	
¡¡£´£Á	ÂÀÍÛÅÅÃÓȯÀ¸ÅÅή	=	 1058.8	[mA]	
¡¡£´£Â	£Â½¼ÊüÅÅÅÅή¡¡	=	 -138.0	[mA]	
¡¡£´£Ã	£Âü»ÒÅÅ°µ¡¡¡¡¡¡¡¡=	   15.6	[V]	
¡¡£´£Ä	£ÂÃæ´Öü»ÒÅÅ°µ	=	    6.9	[V]	
¡¡£µ£Á	¥Ð¥¹ÅÅ°µ	¡¡¡¡¡¡¡¡=	   17.3	[V]	
¡¡£µ£Â	£Ê£Ô£ÁÁ÷¿®ÅÅÎÏ	=	  415.4	[mW]	
¡¡£µ£Ã 	¹½Âβ¹ÅÙ£±¡¡¡¡¡¡¡¡= 	   13.1	[¡î]	
¡¡£µ£Ä	¹½Âβ¹ÅÙ£²¡¡¡¡¡¡¡¡=	   14.3	[¡î]	
¡¡£¶£Á	¹½Âβ¹ÅÙ£³¡¡¡¡¡¡	=	   15.9	[¡î]	
¡¡£¶£Â	¹½Âβ¹ÅÙ£´¡¡¡¡	=	   15.5	[¡î]	
¡¡£¶£Ã	£Â¥»¥ë²¹ÅÙ¡¡¡¡¡¡=	   13.9	[¡î]
	
 ===========================¡¡¡¡FO-29¡Ê¤Õ¤¸£³¹æ¡Ë¤ÎQSO¾ðÊóÅù¡¡======================
   
¡¡£³)[jamsat-bb:

 ===============================================================================
¡¡¡¡¡¡£´¡Ë£Ê£Á£Ò£Ì ¤Î¥Û¡¼¥à¥Ú¡¼¥¸¤Ë±¿ÍÑͽÄ꤬µ­ºÜ¤µ¤ì¤Æ¤¤¤Þ¤·¤¿¤Î¤Ç¤´¾Ò²ð¤·¤Þ¤¹¡¥
       ¡Ê http://www.jarl.or.jp/Japanese/3_Fuji/new/uy.htm ¡Ë

        ¢£ ¤Õ¤¸£³¹æ¡¿FO¡¼29/JAS-2 ¢£  
  ¡¡
¡¡¡¡¡¡¡¡¡¡¡ö¡ö¡ö¡¡±¿ÍÑͽÄê¤Ë¤Ä¤¤¤Æ¡¡¡ö¡ö¡ö¡¡
¡¡
¡¡¡¡¡¡£±£±·î£°£·Æü¡¡¡Á¡¡£±£±·î£±£¶Æü ¥¢¥Ê¥í¥°·Ï±¿ÍÑ 

¡¡¡¡¡¡£±£±·î£±£·Æü¡¡¡Á¡¡£±£±·î£²£¶Æü ¥Ç¥¸¥¿¥ë·Ï1200bps
¡¡¡¡¡¡¡¡¡¡¡¡¡¡¡¡¡¡¡¡¡¡¡¡¡¡¡¡¡¡¡¡¡¡¡¡¡¡¥á¡¼¥ë¥Ü¥Ã¥¯¥¹±¿ÍÑ 

¡¡¡¡¡¡£±£±·î£²£·Æü¡¡¡Á¡¡£±£²·î£°£·Æü¡¡¥¢¥Ê¥í¥°·Ï±¿ÍÑ 


¡¡¡ö¤Ê¤ª¡¤±¿ÍÑͽÄê¤ÏÅÔ¹ç¤Ë¤è¤êÊѹ¹¤¹¤ë¤³¤È¤¬¤¢¤ê¤Þ¤¹¤Î¤Ç¤´Î»¾µ´ê¤¤¤Þ¤¹¡£

¡¡¾È²ñÀè¡¡¡§¡¡lab@jarl.or.jp

¡¡ºÇ¿·¤Î¾ðÊó¤Ï¥Æ¥ì¥Û¥ó¥µ¡¼¥Ó¥¹¡Ê£°£³¡Ý£³£¹£´£²¡Ý£±£°£°£°¡Ë¤ò¤ªÊ¹¤­¤¯¤À¤µ¤¤¡£¡¡¡¡
¡¡°Ê¸å¤Î±¿ÍѤˤĤ­¤Þ¤·¤Æ¤Ï£±£²·î¾å½Ü¤Ë¤ªÃΤ餻¤¤¤¿¤·¤Þ¤¹¡£
 
¡¡¤Õ¤¸£²¹æ¡Ê£Ê£Á£Ó¡Ý£±£â¡Ë¤Î±¿ÍÑ 

¡¡£Ã£×¥Æ¥ì¥á¥È¥ê¤Îµ¡Ç½¤Ë¾ã³²¤¬È¯À¸¤·¤Æ¤¤¤Þ¤¹¡£¾ÜºÙ¤Ï¡Ö¤Õ¤¸£²¹æ¡×¤Î¸½¶·¤ò¤´Í÷¤¯¤À¤µ¤¤¡£
¡¡±¿ÍѤϥ¢¥Ê¥í¥°·Ï¤ÎϢ³±¿ÍѤȤ·¤Þ¤¹¡£ 
¡¡
-----------------------    £Æ£Ï¡Ý£²£°¡ÊJAS-£±£â¡ËÆ»Í×ÁÇ   -------------------------
 ¡¡£µ¡Ë
 ¡¡¢£ µ°Æ»Í×ÁÇ£± ¡§½Ðŵ¤Ï£Æ£Ï-£²£¹¡Ö¤Õ¤¸£³¹æ¡×¤ËƱ¤¸¡¥
  
 ¡¡FO-20
¡¡1 20480U 90013C   00313.84888726 -.00000001  00000-0  62274-4 0 02726
¡¡2 20480 099.0736 057.2930 0540826 087.7838 278.5061 12.83282800503834
 
 ¡¡¢£ µ°Æ»Í×ÁÇ£² ¡§½Ðŵ¤Ï£Æ£Ï¡Ý£²£¹¡Ö¤Õ¤¸£³¹æ¡×¤ËƱ¤¸¡¥
               
 ¡¡Satellite: FO-20
¡¡¡¡Catalog number: 20480
¡¡¡¡Epoch time:      00313.84888726
¡¡¡¡Element set:    0272
¡¡¡¡Inclination:      099.0736 deg
¡¡¡¡RA of node:       057.2930 deg
¡¡¡¡Eccentricity:    0.0540826
¡¡¡¡Arg of perigee:   087.7838 deg
¡¡¡¡Mean anomaly:     278.5061 deg
¡¡¡¡Mean motion:   12.83282800 rev/day
¡¡¡¡Decay rate:       -1.0e-08 rev/day^2
¡¡¡¡Epoch rev:           50383
¡¡¡¡Checksum:              307

¡¡--------------------------------------------------------------------------------
¡¡
¡¡        ¢£ ¤Õ¤¸£²¹æ¡¿£Æ£Ï¡Ý£²£°/JAS-1£â ¢£  ¡¡   
            
¡¡¡¡¡¡¡¡¡¡¡¡¡¡¡¡¡¡¡¡¡Ö¤Õ¤¸£²¹æ¡×¡¡¸½¶·                                                                                  
             
   JAS-1b¡Ê¤Õ¤¸£²¹æ¡Ë¤Î£Ã£×¥Æ¥ì¥á¥È¥ê¿®¹æ¤Ë¡¤£±£¹£¹£·Ç¯£±£°·î£±£²Æü£±£²»þ¡Ê£Ê£Ó£Ô¡Ë¤Î
¡¡ÆüËܾå¶õÄ̲á»þ¡¤£³·å¤Î¿ô»ú¤¬·«¤êÊÖ¤µ¤ì¤ë¤Ï¤º¤¬£³¸Ä¤ÎĹ²»¤Î·«¤êÊÖ¤·¤È¤Ê¤Ã¤Æ¤¤¤ë¤È¤¤¤¦
¡¡°Û¾ï¤¬È¯¸«¤µ¤ì¤Þ¤·¤¿¡£¤³¤ÎÉÔ¶ñ¹ç¤Ï¼¡¤ÎÄ̲á»þ¤«¤é¤Ï²óÉü¤·¤Æ¤¤¤Þ¤·¤¿¤¬£±£³Æü£±£µ»þ£²£°Ê¬¤Î
¡¡Ä̲á»þ¤ËºÆ¤Ó´Ñ¬¤µ¤ì¤Þ¤·¤¿¡£¸½ºß¤Ï£Á£°¤ÎÁ÷¿®¤¬Â³¤¤¤Æ¤¤¤Þ¤¹¡£±ÒÀ±¤Î¥¢¥Ê¥í¥°·ÏÃæ·Ñ¥â¡¼¥É
¡¡Æ°ºî¤Ï°Û¾ï¤¬Ìµ¤¯¡¤Àµ¾ï»þ¤Î¥Æ¥ì¥á¥È¥êÆâÍƤ«¤é¤Ï±ÒÀ±¤ÎÆ°ºî¤Ë°Û¾ï¤Ïǧ¤á¤é¤ì¤Þ¤»¤ó¡£½¾¤Ã¤Æ¡¤
¡¡Ä¾¤Á¤Ë±ÒÀ±¤Î¥ß¥Ã¥·¥ç¥ó¤Ë±Æ¶Á¤¹¤ë¤³¤È¤Ï̵¤¤¤ÈͽÁÛ¤µ¤ì¤Þ¤¹¤Î¤Ç¡¤ÅöÌ̤ϥ¢¥Ê¥í¥°·ÏÃæ·Ñ
¡¡¥â¡¼¥É¤ò·Ñ³¤·¤Þ¤¹¡£±ÒÀ±¤Ï´û¤ËÂǤÁ¾å¤²¤Æ¤«¤é£·Ç¯£¸¥ö·î¤ò·Ð¤Æ¤ª¤ê¤Þ¤¹¤Î¤Ç¡¤º£¸å¤Ï´Æ»ë¤ò
¡¡¶¯²½¤¹¤ëͽÄê¤Ç¤¹¡£¥¢¥Þ¥Á¥å¥¢³Æ°Ì¤Î¥ì¥Ý¡¼¥È¤ò¤ªÂÔ¤Á¤·¤Þ¤¹¡£
¡¡-------------------------------------------------------------------------------- 
¡¡¡¡1997ǯ10·î14Æü¡¡00»þ35ʬ ³Îǧ¤Î¥Æ¥ì¥á¥È¥ê²» 151 KB ¡Ê£Á£°¡Ë 
¡¡¡¡1997ǯ10·î14Æü¡¡11»þ10ʬ ³Îǧ¤Î¥Æ¥ì¥á¥È¥ê²» 216 KB ¡Ê°Û¾ï¥­¡¼¥¤¥ó¥°¡Ë 

  °Ê¾å¡¡£Ê£Á£Ò£Ì¤Î¥Û¡Ý¥à¥Ú¡¼¥¸¤Î http://www.jarl.or.jp/Japanese/3_Fuji/new/fuji.htm

===================== FO-20¡¡¤Õ¤¸£²¹æ¡¡¤Î¥Æ¥ì¥á¥È¥ê´Ñ¬·ë²Ì¡¡====================

   £¶·î£³Æü¡ÊÅڡˤΣ±£´¡§£±£µ¡ÊJST)¤Î¥Ñ¥¹¤Î´Ñ¬·ë²Ì¤Ç¤Ï°ÊÁ°´Ñ¬¤·¤¿·ë²Ì¤è¤ê¤âÊÑÆ°¤Î¤Ê¤¤
¡¡Ã±°ì¼þÇÈ¿ô¤Ç¥É¥Ã¥×¥é¡¼¸ú²Ì¤Ç¼þÇÈ¿ô¤¬¤º¤ì¤Æ¤¤¤¯¤Î¤ß¤Î¾õÂÖ¤ËÌá¤Ã¤Æ¤ª¤ê¤Þ¤·¤¿¡£
                                         
   =============   JAS-2 ¡Ê¤Õ¤¸£³¹æ¡Ë¤È¸½ºß¤Þ¤Ç¤Î¾ðÊó   ===========
  
  £Á¡¥ÅÅÏäˤè¤ë¤Õ¤¸£³¹æ¤Î±¿ÍѾðÊó
      ¼ÒÃÄË¡¿ÍÆüËÜ¥¢¥Þ¥Á¥å¥¢Ï¢ÌÁ¤Ë¤è¤ë¥µ¡¼¥Ó¥¹
           £Ô£Å£Ì ¡¥   £°£³¡Ý £³£¹£´£² ¡Ý £±£°£°£°
  £Â¡¥¥¢¥Þ¥Á¥å¥¢ÌµÀþ£Æ£Á£Ø¥µ¡¼¥Ó¥¹
      £Ê£Á£Ò£Ì¤Ë¤è¤ë¤Õ¤¸£³¹æ¤Îµ°Æ»¾ðÊó¡Ê¥ª¡¼¥Ó¥Ã¥È¥«¥ì¥ó¥À¡¼¡Ë
         £Æ£Á£Ø £Î£ï¡¥  £°£³¡Ý £³£²£³£³ ¡Ý£°£°£µ£µ
  £Ã¡¥£×£×£×¥Ö¥é¥¦¥¶¤Ç¾ðÊó¤ò´Êñ¤Ë¸«¤ì¤ë¿Í¤Î¤¿¤á¤Ë£Ê£Á£Ó¡Ý£²
     ¤Õ¤¸£³¹æ¤Î±ÒÀ±¤È¤·¤Æ¤Î±¿ÍѤµ¤ì¤ë¤Þ¤Ç¤Î̾Á°¡Ë¤Î³µÍס¢ÂǤÁ¾å¤²
     ¤Þ¤Ç¤Î¾õ¶·¡¢±¿ÍÑÃæ¤Ë¤ª¤±¤ë¾õ¶·¤òÀâÌÀ¤·¤¿¥Û¡¼¥à¥Ú¡¼¥¸¤ò¾Ò²ð¤·
     ¤Æ¤ª¤­¤Þ¤¹¡¥
    ­¡ ¼ÒÃÄË¡¿ÍÆüËÜ¥¢¥Þ¥Á¥å¥¢ÌµÀþÏ¢ÌÁ¡Ê£Ê£Á£Ò£Ì¡Ë¤Î¥Û¡¼¥à¥Ú¡¼¥¸

          http://www.jarl.or.jp/Japanese/3_Fuji/jasmenu.htm
 
    ­¢ ±§Ã賫ȯ»ö¶ÈÃġʣΣÁ£Ó£Ä£Á¡Ë¥Û¡¼¥à¥Ú¡¼¥¸ 
          http://www.nasda.go.jp/
         ÂǾ夲±ÒÀ±¡¡¡§Ãϵå´Ñ¬¥×¥é¥Ã¥È¥Õ¥©¡¼¥àµ»½Ñ±ÒÀ±¡ÊADEOS¡Ë 
                       ¥¢¥Þ¥Á¥å¥¢±ÒÀ±£³¹æ(JAS-2)
          http://yyy.tksc.nasda.go.jp/Home/Press/Press-j/jas-2_j.html        

  £Ä¡¥£Ê£Á£Í£Ó£Á£Ô¤Ë¤è¤ëµ°Æ»¾ðÊó¤Î³èÍÑ
        JAMSAT¤Î¥Û¡¼¥à¥Ú¡¼¥¸¤Þ¤¿¤Ïjamsat¡Ýkeps¤Îµ°Æ»Í×ÁǤè¤ê
      ±ÒÀ±¤Îµ°Æ»¾ðÊó¤òÆÀ¤ë¡¥
     £Ê£Á£Í£Ó£Á£Ô¥Û¡¼¥à¥Ú¡¼¥¸
               £Õ£Ò£Ì    http://www.jamsat.or.jp
       ¾åµ­¥Û¡¼¥à¥Ú¡¼¥¸¤Ç¤Ï³ÆÃϤǹԤï¤ì¤ë¥¢¥Þ¥Á¥å¥¢ÄÌ¿®±ÒÀ±¤Ë´Ø¤¹¤ë
      ¥ß¥å¡¼¥Æ¥£¥ó¥°¤Î¤ªÃΤ餻¤äÀ¤³¦¤Î¥¢¥Þ¥Á¥å¥¢±ÒÀ±¤Ë´Ø¤¹¤ë¾ðÊó¤¬
      ËþºÜ¤µ¤ì¤Æ¤¤¤Þ¤¹¡¥
¡¡========================================================================  
¡¡    £Ê£Á£Í£Ó£Á£Ô¤Î¥á¥ó¥Ð¡¼¤Î¤´¶¨ÎϤˤè¤ê£Ê£È£¶£Í£Í£Å¡Ê¹â»³ ½¨Â¤¡Ë¤¬
    ¼¹É®¡¦ÊÔ½¸¤òôÅö¤·¤Æ¤ª¤ê¤Þ¤¹¡¥¤´»ØŦ¤Î°Õ¸«¡¢µ¿Ìä¤ä¤³¤Î¤è¤¦¤Ë¤·¤¿¤é
    ¤È¤¤¤¦¥¢¥¤¥Ç¥¢¤¬¤¢¤ê¤Þ¤·¤¿¤é¾®¤µ¤Ê¤³¤È¤Ç¤â¤«¤Þ¤¤¤Þ¤»¤ó¤Î¤Çµ¤·Ú¤Ë²¼
    µ­¥¢¥É¥ì¥¹¤Þ¤Ç¤´Ï¢Íí¤¯¤À¤µ¤¤¡¥£ê£á£í£ó£á£ô¡Ý£î£å£÷£ó¤«¤é£ê£á£ó£²
    £é£î£æ£ï¤Ø¤ÎžºÜ¤ò£Ê£È£´£Ð£È£×¶Éºä°æ¤µ¤ó¤ËôÅö¤·¤Æ夤¤Æ¤ª¤ê¤Þ¤¹¡¥  
                  E-mail : jh6mme@jamsat.or.jp : jh4phw@jamsat.or.jp
 ===============================   £Å£Î£Ä  ===============================